星链-30764 (STARLINK-30764 )

导读 | 豆包AI

STARLINK-30764是美国SpaceX公司星链(Starlink)星座的成员卫星,于2023年10月29日发射升空。作为星链低轨互联网星座的组成部分,它服务全球宽带通信,可提供高带宽低延迟网络服务,配备相控阵天线,采用氪离子推进实现轨道维持与自主避碰,退役后会在大气层中焚毁以减少空间碎片。

基本信息
目录编号:
58170
目录名称:
STARLINK-30764
国际标识:
2023-166W
轨道中心:
EARTH
卫星名称:
星链-30764
卫星全名:
星链-30764 (STARLINK-30764 )
卫星状态:
在轨 (已飞行914 天)
发射日期:
2023-10-29 UTC
国别 :
美国 (US)
星等 :
--
轨道信息
数据来源 国际轨道数据
星历时间: 2026-04-30T09:02:25+0800
17小时前
查看轨道信息
半长轴: 6853.37km
偏心率: 0.0000845
轨道倾角: 53.160°
近地点辐角 124.893°
升交点赤经 340.949°
平近点角 235.215°
近地点: 474.653km
远地点: 475.813km
周期: 94.106分钟
每日圈数: 15.301943
详细信息
固有亮度:
5
最大亮度:
0.3
卫星平台:
Starlink v2.0 mini
覆盖范围:
全球
运营商:
太空探索技术公司
运营商所在国:
美国
制造商(研发单位):
太空探索技术公司
制造商所在国:
美国
使用方式:
暂无
卫星简介
星链(Starlink)计划是由太空探索技术公司(SpaceX)提出的一个巨型低轨卫星互联网星座项目,计划在2019年至2024年间在太空搭建由约1.2万颗卫星组成的“星链”网络,其中1584颗将部署在地球上空550千米处的近地轨道,并从2020年开始工作。该卫星仍在工作。
2D轨道图
3D轨道图
轨道高度分析图
轨道倾角分析图
轨道综合分析图
查看轨道综合分析图